Regional Weather Roundup
Issued by NWS Mt. Holly, NJ

Home | Current Version | Previous Version | Text Only | Print | Product List | Glossary On
Versions: 1 2 3 4 5 6 7 8 9 10 11 12 13 14 15 16 17 18 19 20 21 22 23 24 25 26 27
000
ASUS41 KPHI 232213
RWRPHI

REGIONAL WEATHER ROUNDUP
NATIONAL WEATHER SERVICE MOUNT HOLLY NJ
600 PM EDT WED AUG 23 2017

NOTE:  "FAIR" INDICATES FEW OR NO CLOUDS BELOW 12,000 FEET WITH NO
SIGNIFICANT WEATHER AND/OR OBSTRUCTIONS TO VISIBILITY.

 * = STATION DOES NOT REPORT PRECIPITATION (E.G. RAIN, SNOW, ETC.)
        OR FOG.

NJZ015>026-232300-
SOUTHERN NEW JERSEY

CITY           SKY/WX    TMP DP  RH WIND       PRES   REMARKS
POMONA         CLOUDY    81  62  52 W6        29.84S
WILDWOOD*      CLOUDY    77  68  73 CALM      29.85S
MILLVILLE      CLOUDY    81  64  56 NW5       29.84S
WRIGHTSTOWN    MOSUNNY   80  57  44 NW10      29.82S
MOUNT HOLLY    MOSUNNY   80  55  42 NW7       29.84S
TRENTON        SUNNY     80  53  39 W8        29.84F

$$
NJZ001>014-232300-
NORTHERN NEW JERSEY

CITY           SKY/WX    TMP DP  RH WIND       PRES   REMARKS
SUSSEX         SUNNY     77  52  41 VRB6      29.85S
ANDOVER*         N/A     79  55  43 VRB3      29.86S
MORRISTOWN     MOSUNNY   79  52  38 NW8       29.84S
NEWARK         MOSUNNY   81  51  35 NW14      29.83R
TETERBORO      MOSUNNY   81  54  39 NW12      29.82S
CALDWELL       SUNNY     80  55  42 NW7       29.84S
SOMERVILLE     SUNNY     80  56  43 VRB5      29.82F
ALLAIRE*       MOSUNNY   79  55  43 W7        29.85S
TOMS RIVER*    MOSUNNY   79  58  48 NW7       29.85R

$$
PAZ043-044-047-054-055-060>062-066>071-232300-
EASTERN PENNSYLVANIA

CITY           SKY/WX    TMP DP  RH WIND       PRES   REMARKS
PHILADELPHIA   MOSUNNY   81  53  37 NW13      29.85S
NORTH PHILA    MOSUNNY   82  53  36 NW8       29.86S
BLUE BELL*     SUNNY     77  55  47 CALM      29.87S
DOYLESTOWN     SUNNY     79  56  45 NW6       29.85F
QUAKERTOWN*    SUNNY     77  57  50 W3        29.87F
PERKASIE*      FAIR      77  57  50 NW5       29.87F
POTTSTOWN      SUNNY     78  55  44 NW6       29.88S
LANCASTER      SUNNY     79  57  46 NW10      29.87S
COATESVILLE    SUNNY     77  55  47 NW10      29.89S
READING        MOSUNNY   78  56  46 NW8       29.85F
ALLENTOWN      SUNNY     79  51  37 W12       29.86S
MOUNT POCONO   PTSUNNY   68  53  58 NW6       29.91S
HAZLETON         N/A     75  50  41 W8        29.94S
LEHIGHTON      FAIR      77  50  38 NW5       29.87F
WILKES BARRE   MOSUNNY   76  52  43 NW10      29.88S

$$
DEZALL-MDZ008-012-015-019-020-232300-
DELAWARE AND EASTERN MARYLAND

CITY           SKY/WX    TMP DP  RH WIND       PRES   REMARKS
WILMINGTON     MOSUNNY   81  59  47 NW10      29.86S
DOVER          CLOUDY    79  61  53 NW7       29.85S
GEORGETOWN     CLOUDY    78  66  66 NW5       29.85S
EASTON         CLOUDY    77  68  73 CALM      29.88F
ABERDEEN       MOSUNNY   80  58  48 N8        29.85F
PATUXENT       CLOUDY    75  69  81 NE8       29.84F
OCEAN CITY     CLOUDY    77  72  84 CALM      29.85S
WALLOPS ISLAND CLOUDY    76  74  93 N6        29.85R
CAMBRIDGE      CLOUDY    73  70  88 CALM      29.84F
SALISBURY      CLOUDY    78  69  73 N7        29.85R

$$
PAZ001-021-NYZ056-072-MDZ011-DCZ001-232300-
OTHER NEARBY LOCATIONS

CITY           SKY/WX    TMP DP  RH WIND       PRES   REMARKS
HARRISBURG     MOSUNNY   80  55  42 NW8       29.86S
STATE COLLEGE  MOSUNNY   73  52  46 W6        29.91F
WILLIAMSPORT   MOSUNNY   79  55  43 SW5       29.85F
BINGHAMTON     MOSUNNY   70  49  47 NW6       29.89S
NEW YORK CITY  SUNNY     79  53  40 NW7       29.86R
BALTIMORE      MOSUNNY   82  60  47 N6        29.85S
WASHINGTON DC  MOSUNNY   84  60  44 N8        29.85S

$$




USA.gov is the U.S. government's official web portal to all federal, state and local government web resources and services.